Flag for Spain Weather past 2 weeks in Santander, Spain

Now
55 °F

Overcast.


Feels Like: 54 °F
Forecast: 53 / 57 °F
Wind: 7 mph from Southwest

Location: Santander / Parayas

Current Time: Dec 20, 2014 at 9:59:36 AM

Latest Report: Dec 20, 2014 at 9:30 AM


Visibility: N/A

Pressure: 30.54 "Hg

Humidity: 82%

Dew point: 50 °F

Location of SantanderLocation

Historic Weather in Santander — Graph

°F

Santander temperature yesterday

Maximum temperature yesterday: 57 °F (at 4:30 PM)
Minimum temperature yesterday: 48 °F (at 5:30 AM)
Average temperature yesterday: 53 °F

Past Weeks' High & Low Weather Summary

 TemperatureHumidityPressure
High57 °F (Dec 10, 12:30 PM)100% (Dec 7, 1:30 PM)30.57 "Hg (Dec 7, 1:30 PM)
Low41 °F (Dec 12, 7:00 AM)47% (Dec 12, 4:30 PM)29.71 "Hg (Dec 13, 5:30 AM)
Average52 °F78%30.29 "Hg
* Reported Dec 5 9:00 AM — Dec 20 9:00 AM, Santander, Weather by CustomWeather, © 2014

Note: Actual official high and low records may vary slightly from our data, if they occured in-between our weather recording intervals... More about our weather records

Advertising

Santander weather history for previous 24 hours

 ConditionsComfort  
Time TempWeatherWind HumidityBarometerVisibility
9:00 AM
Dec 20
55 °FOvercast.6 mph77%30.54 "HgN/A
8:30 AM55 °FOvercast.6 mph77%30.54 "HgN/A
8:00 AM55 °FOvercast.7 mph77%30.54 "HgN/A
7:30 AM55 °FOvercast.6 mph77%30.51 "HgN/A
7:00 AM55 °FOvercast.6 mph77%30.51 "HgN/A
6:30 AM55 °FOvercast.7 mph77%30.51 "HgN/A
6:00 AM55 °FPassing clouds.7 mph77%30.51 "HgN/A
5:30 AM55 °FPassing clouds.7 mph77%30.51 "HgN/A
11:00 PM
Dec 19
55 °FPartly cloudy.5 mph72%30.54 "HgN/A
10:30 PM55 °FPassing clouds.5 mph72%30.54 "HgN/A
10:00 PM54 °FPassing clouds.7 mph72%30.54 "HgN/A
9:30 PM54 °FPassing clouds.9 mph77%30.54 "HgN/A
9:00 PM54 °FPassing clouds.9 mph77%30.51 "HgN/A
8:30 PM54 °FPassing clouds.8 mph72%30.51 "HgN/A
8:00 PM54 °FPassing clouds.7 mph77%30.51 "HgN/A
7:30 PM54 °FPassing clouds.8 mph72%30.51 "HgN/A
7:00 PM54 °FPassing clouds.6 mph77%30.51 "HgN/A
6:30 PM54 °FPassing clouds.6 mph77%30.51 "HgN/A
6:00 PM55 °FPassing clouds.3 mph67%30.48 "HgN/A
5:30 PM55 °FPartly sunny.8 mph72%30.48 "HgN/A
5:00 PM55 °FPartly sunny.8 mph72%30.48 "HgN/A
4:30 PM57 °FPartly sunny.9 mph63%30.48 "HgN/A
4:00 PM55 °FPartly sunny.6 mph67%30.48 "HgN/A
3:30 PM55 °FPartly sunny.7 mph67%30.48 "HgN/A
3:00 PM55 °FPartly sunny.7 mph63%30.48 "HgN/A
2:30 PM55 °FPartly sunny.9 mph63%30.48 "HgN/A
2:00 PM55 °FPartly sunny.9 mph63%30.48 "HgN/A
1:30 PM54 °FPartly sunny.9 mph67%30.48 "HgN/A
1:00 PM54 °FPartly sunny.9 mph67%30.51 "HgN/A
12:30 PM54 °FBroken clouds.8 mph67%30.51 "HgN/A
12:00 PM52 °FPartly sunny.8 mph72%30.51 "HgN/A
11:30 AM52 °FPartly sunny.7 mph72%30.51 "HgN/A
11:00 AM52 °FPartly sunny.7 mph72%30.51 "HgN/A
10:30 AM50 °FPartly sunny.7 mph76%30.48 "HgN/A
10:00 AM50 °FPartly sunny.7 mph76%30.48 "HgN/A
9:30 AM50 °FPartly sunny.9 mph71%30.48 "HgN/A
9:00 AM48 °FPartly sunny.9 mph76%30.45 "HgN/A
Weather by CustomWeather, © 2014

See weather overviewHow to use our weather pages